Tracking 35334 objects as of 13-Sep-2026
HD Live streaming from Space Station
objects crossing your sky now

DELTA 2 DEB


DELTA 2 DEB is no longer on orbit


NORAD ID: 26791
Int'l Code: 1992-019D
Launch date: April 10, 1992
Source: United States (US)
Launch site: AIR FORCE EASTERN TEST RANGE (AFETR)
Decay date: 2026-07-10

Note: This is SATELLITE DEBRIS
Your satellite tracking list
Your tracking list is empty




NASA's NSSDC Master Catalog

Two Line Element Set (TLE):
1 26791U 92019D   26170.20775526  .01024233  24605-6  31747-3 0  9999
2 26791  34.5424 225.5146 0403673 309.0541  47.4901 15.46433387745228
Source of the keplerian elements: AFSPC